Content
SEND FEEDBACK

Daily
Averages
Monthly
Summary
French Polynesia

PAPEETE, FRENCH POLYNESIA


Home > Oceania > French Polynesia
Elevation: 7 feet     Latitude: 17 33S     Longitude: 149 36W

WEATHER
 
SELECT A DAY
Number of Records: 208,134;   Date Range: 6/30/96 - 7/23/14
 
SHARE

PRINT THIS DATA

[ ← Previous Day ]
WEATHER ALMANAC - OCTOBER 1, 2013
[ Next Day → ]
[ °C ]   °F
Weather ElementAverageHighLow
Temperature79.2 °F86 °F (2:30 pm)73 °F (5:00 am)
Dewpoint68.8 °F71.6 °F (9:30 am)66 °F (8:00 pm)
Humidity69.9 %88 % (6:00 am)45 % (2:00 pm)
Barometer29.98 in30.03 in (8:00 am)29.92 in (2:00 pm)
Wind Speed4.6 mph16.1 mph (9:30 am)
Weather ElementAverage
Visibility7.5 mi
Wind DirectionENE (68 °)

Weather ElementTotal
Precipitation---
Cooling Degree Days14.5 (Base 65)
Growing Degree Days29.5 (Base 50)
Averaged from 53 records on October 1, 2013
WEATHER CONDITIONS BREAKOUT
WIND DIRECTION BREAKOUT
WEATHER BY HOUR - OCTOBER 1, 2013
[ °C ]   °F
Local TimeTemperatureDewpointHumidityBarometerVisibilityWind DirectionWind SpeedGust SpeedPrecipitationEventsConditions
12:30 AM75.2 °F68.0 °F78 %29.98 in6.2 miENE (60°)4.6 mphPartly Cloudy
1:00 AM75.2 °F68.0 °F78 %29.98 in6.2 miEast (100°)4.6 mphPartly Cloudy
1:30 AM75.2 °F68.0 °F78 %29.98 in6.2 miEast (80°)4.6 mphPartly Cloudy
2:00 AM74.0 °F68.0 °F76 %29.98 in12.0 miSSE (150°)1.2 mphScattered Clouds
2:00 AM75.2 °F68.0 °F78 %29.98 in6.2 miCalmPartly Cloudy
2:30 AM73.4 °F68.0 °F83 %29.95 in6.2 miVariable2.3 mphPartly Cloudy
3:00 AM73.4 °F68.0 °F83 %29.95 in6.2 miEast (80°)1.2 mphPartly Cloudy
3:30 AM73.4 °F68.0 °F83 %29.95 in6.2 miCalm
4:00 AM73.4 °F68.0 °F83 %29.95 in6.2 miSE (140°)3.5 mphPartly Cloudy
4:30 AM73.4 °F68.0 °F83 %29.98 in6.2 miSouth (170°)5.8 mph
5:00 AM73.0 °F68.0 °F80 %29.99 in34.0 miSSE (160°)6.7 mphClear
5:00 AM73.4 °F68.0 °F83 %29.98 in6.2 miSSE (160°)3.5 mph
5:30 AM73.4 °F68.0 °F83 %29.98 in6.2 miCalmMostly Cloudy
6:00 AM73.4 °F69.8 °F88 %30.01 in6.2 miEast (80°)4.6 mphMostly Cloudy
6:30 AM75.2 °F69.8 °F83 %30.01 in6.2 miVariable3.5 mphMostly Cloudy
7:00 AM77.0 °F68.0 °F74 %30.01 in6.2 miSouth (170°)3.5 mphMostly Cloudy
7:30 AM78.8 °F69.8 °F74 %30.01 in6.2 miCalmPartly Cloudy
8:00 AM81.0 °F68.0 °F56 %30.03 in12.0 miSW (230°)4.6 mphPartly Cloudy
8:00 AM80.6 °F68.0 °F65 %30.01 in6.2 miSW (230°)4.6 mphPartly Cloudy
8:30 AM80.6 °F69.8 °F70 %30.01 in6.2 miVariable3.5 mphPartly Cloudy
9:00 AM82.4 °F69.8 °F66 %30.01 in6.2 miENE (60°)12.7 mphPartly Cloudy
9:30 AM84.2 °F71.6 °F66 %30.01 in6.2 miENE (60°)16.1 mphPartly Cloudy
10:00 AM84.2 °F71.6 °F66 %30.01 in6.2 miEast (80°)9.2 mphPartly Cloudy
10:30 AM82.4 °F69.8 °F66 %30.01 in6.2 miSW (220°)6.9 mphPartly Cloudy
11:00 AM82.0 °F69.0 °F57 %30.00 in12.0 miCalmScattered Clouds
11:00 AM82.4 °F69.8 °F66 %29.98 in6.2 miNorthPartly Cloudy
11:30 AM84.2 °F71.6 °F66 %29.98 in6.2 miNorthPartly Cloudy
12:00 PM82.4 °F68.0 °F62 %29.98 in6.2 miNorthPartly Cloudy
12:30 PM82.4 °F68.0 °F62 %29.95 in6.2 miNorthPartly Cloudy
1:00 PM84.2 °F69.8 °F62 %29.95 in6.2 miNorthPartly Cloudy
1:30 PM84.2 °F69.8 °F62 %29.95 in6.2 miNorthPartly Cloudy
2:00 PM85.0 °F67.0 °F45 %29.94 in12.0 miCalmScattered Clouds
2:00 PM84.2 °F66.2 °F55 %29.92 in6.2 miNorthPartly Cloudy
2:30 PM86.0 °F68.0 °F55 %29.92 in6.2 miNorthPartly Cloudy
3:00 PM86.0 °F69.8 °F58 %29.92 in6.2 miNorthScattered Clouds
4:00 PM84.2 °F71.6 °F66 %29.92 in6.2 miNorthScattered Clouds
4:30 PM84.2 °F69.8 °F62 %29.95 in6.2 miNorthMostly Cloudy
5:00 PM83.0 °F71.0 °F59 %29.97 in12.0 miSW (220°)8.1 mphMostly Cloudy
5:00 PM82.4 °F71.6 °F70 %29.95 in6.2 miSW (220°)8.1 mphMostly Cloudy
5:30 PM82.4 °F69.8 °F66 %29.98 in6.2 miSSW (200°)8.1 mphScattered Clouds
6:00 PM80.6 °F69.8 °F70 %29.98 in6.2 miSouth (170°)8.1 mphScattered Clouds
6:30 PM80.6 °F69.8 °F70 %29.98 in6.2 miVariable3.5 mphScattered Clouds
7:00 PM80.6 °F68.0 °F65 %29.98 in6.2 miNE (40°)8.1 mphScattered Clouds
7:30 PM78.8 °F66.2 °F65 %29.98 in6.2 miNNE (30°)8.1 mphPartly Cloudy
8:00 PM79.0 °F66.0 °F57 %30.01 in12.0 miENE (70°)3.5 mphScattered Clouds
8:00 PM78.8 °F66.2 °F65 %30.01 in6.2 miVariable2.3 mphPartly Cloudy
8:30 PM78.8 °F68.0 °F69 %30.01 in6.2 miENE (60°)4.6 mphPartly Cloudy
9:00 PM77.0 °F68.0 °F74 %30.01 in6.2 miVariable3.5 mphPartly Cloudy
9:30 PM77.0 °F68.0 °F74 %30.01 in6.2 miVariable2.3 mphPartly Cloudy
10:00 PM77.0 °F68.0 °F74 %30.01 in6.2 miVariable3.5 mphPartly Cloudy
10:30 PM77.0 °F68.0 °F74 %30.01 in6.2 miENE (60°)4.6 mphPartly Cloudy
11:00 PM76.0 °F69.0 °F72 %30.01 in12.0 miEast (90°)6.7 mphScattered Clouds
11:30 PM75.2 °F68.0 °F78 %29.98 in6.2 miEast (80°)4.6 mphPartly Cloudy
Hourly data recorded from NTAA, located miles away from Papeete, French Polynesia







STORIES FROM OUR PARTNERS